"2010-10-25 00:00:00",276781,4.801,212.3,4.517,0.176,14.53,105.8695,14.3,15.13,27.22,0,110.4,13.36,15.10,174.3
"2010-10-25 00:00:30",276782,4.384,220.4,2.23,0.392,14.82,105.8701,14.3,15.14,27.35,0,110.4,13.36,15.10,182.4
"2010-10-25 00:01:00",276783,4.507,218.6,3.189,0.539,15.08,105.8877,14.35,15.17,27.53,0,110.4,13.36,15.15,180.6
"2010-10-25 00:01:30",276784,4.643,223.5,4.009,0.354,15.27,105.9034,14.39,15.19,27.56,0,110.4,13.36,15.19,185.5
"2010-10-25 00:02:00",276785,4.304,216.1,2.718,0.109,15.31,105.9039,14.39,15.2,27.35,0,110.4,13.36,15.19,178.1
"2010-10-25 00:02:30",276786,4.35,212.5,3.253,0.137,15.51,105.906,14.39,15.22,27.3,0,110.4,13.36,15.19,174.5
"2010-10-25 00:03:00",276787,4.563,212,4.186,0.266,15.52,105.9063,14.39,15.23,27.09,0,110.4,13.36,15.20,174.0
"2010-10-25 00:03:30",276788,4.693,211,4.172,0.235,15.61,105.9081,14.4,15.24,27.03,0,110.4,13.36,15.20,173.0
"2010-10-25 00:04:00",276789,5.122,202,4.778,0.425,15.54,105.9096,14.4,15.23,26.77,0,110.4,13.36,15.20,164.0
"2010-10-25 00:04:30",276790,6.422,207.2,9.28,1.235,17.6,105.9003,14.38,15.5,26.94,0,110.3,13.33,15.18,169.2
"2010-10-25 00:05:00",276791,7.127,213.7,8.83,0.832,20.15,105.88,14.33,15.53,26.93,0,110.4,13.32,15.13,175.7
"2010-10-25 00:05:30",276792,6.224,226,11.89,1.197,18.56,105.877,14.32,15.46,27.29,0,110.4,13.31,15.12,188.0
"2010-10-25 00:06:00",276793,6.656,236.5,12.69,1.362,16.23,105.8787,14.32,15.37,27.45,0,110.4,13.31,15.12,198.5
"2010-10-25 00:06:30",276794,4.294,220.5,7.359,0.337,13.37,105.8882,14.35,15.22,27.04,0,110.4,13.35,15.15,182.5
"2010-10-25 00:07:00",276795,4.927,216.9,5.277,0.571,13.22,105.8841,14.34,15.22,26.82,0,110.4,13.35,15.14,178.9
"2010-10-25 00:07:30",276796,6.292,206,5.733,0.302,13.68,105.8761,14.32,15.21,26.7,0,110.4,13.35,15.12,168.0
"2010-10-25 00:08:00",276797,6.77,201.5,2.68,0.321,14.12,105.877,14.32,15.18,26.58,0,110.4,13.35,15.12,163.5
"2010-10-25 00:08:30",276798,6.239,201.1,2.287,0.441,14.51,105.8773,14.32,15.18,26.59,0,110.4,13.35,15.12,163.1
"2010-10-25 00:09:00",276799,6.287,204.9,8.99,0.404,14.85,105.8782,14.32,15.17,26.68,0,110.4,13.35,15.12,166.9
"2010-10-25 00:09:30",276800,5.954,216.1,5.105,0.439,14.95,105.8794,14.32,15.17,26.71,0,110.4,13.35,15.13,178.1
"2010-10-25 00:10:00",276801,6.006,207.3,6.357,0.615,15.24,105.8606,14.28,15.16,26.64,0,110.4,13.35,15.08,169.3
"2010-10-25 00:10:30",276802,5.57,212.8,5.982,0.517,15.46,105.8715,14.3,15.16,26.94,0,110.4,13.36,15.11,174.8
"2010-10-25 00:11:00",276803,6.463,213.9,5.746,0.386,15.56,105.8785,14.32,15.17,27,0,110.4,13.36,15.12,175.9
"2010-10-25 00:11:30",276804,5.557,202.5,4.674,0.312,15.69,105.8785,14.32,15.17,27.01,0,110.4,13.36,15.12,164.5
"2010-10-25 00:12:00",276805,4.863,209.7,10.34,0.445,15.82,105.8809,14.33,15.17,27.27,0,110.4,13.36,15.13,171.7
"2010-10-25 00:12:30",276806,6.283,204,6.608,1.378,16.91,105.8813,14.33,15.25,27.04,0,110.4,13.33,15.13,166.0
"2010-10-25 00:13:00",276807,7.452,215.8,7.011,1.219,19.36,105.8859,14.34,15.4,26.96,0,110.4,13.33,15.14,177.8
"2010-10-25 00:13:30",276808,6.498,206.5,7.29,1.232,16.87,105.8969,14.37,15.35,26.93,0,110.4,13.33,15.17,168.5
"2010-10-25 00:14:00",276809,5.974,207.2,12.63,1.188,16.06,105.9067,14.39,15.39,27.2,0,110.4,13.32,15.20,169.2
"2010-10-25 00:14:30",276810,6.879,218.4,8.98,0.913,15.39,105.9141,14.41,15.23,27.33,0,110.4,13.32,15.22,180.4
"2010-10-25 00:15:00",276811,6.102,214.4,9.8,0.624,14.2,105.912,14.41,15.25,26.69,0,110.4,13.36,15.21,176.4
"2010-10-25 00:15:30",276812,5.533,213.6,9.1,0.763,14.36,105.9149,14.41,15.26,27.27,0,110.4,13.36,15.22,175.6
"2010-10-25 00:16:00",276813,6.053,215.3,4.333,0.61,14.61,105.9158,14.42,15.28,26.86,0,110.4,13.36,15.22,177.3
"2010-10-25 00:16:30",276814,5.299,209.6,2.464,0.362,14.85,105.9156,14.42,15.28,26.97,0,110.4,13.36,15.22,171.6
"2010-10-25 00:17:00",276815,5.837,203.6,4,0.4,15.07,105.915,14.42,15.29,26.77,0,110.4,13.36,15.22,165.6
"2010-10-25 00:17:30",276816,6.081,207,14.82,1.043,16.15,105.9159,14.42,15.28,26.71,0,110.4,13.33,15.22,169.0
"2010-10-25 00:18:00",276817,6.346,220.2,10.6,1.082,17.27,105.918,14.42,15.46,27.6,0,110.4,13.33,15.23,182.2
"2010-10-25 00:18:30",276818,5.607,222.4,8,1.528,16.2,105.9294,14.45,15.3,27.73,0,110.4,13.33,15.25,184.4
"2010-10-25 00:19:00",276819,5.302,198.5,6.547,0.955,15.1,105.9461,14.49,15.31,27.05,0,110.4,13.36,15.30,160.5
"2010-10-25 00:19:30",276820,5.336,211.5,2.827,0.39,14.98,105.9364,14.47,15.31,26.89,0,110.4,13.36,15.27,173.5
"2010-10-25 00:20:00",276821,5.419,214.5,4.304,0.196,15.04,105.9228,14.44,15.32,26.9,0,110.4,13.36,15.24,176.5
"2010-10-25 00:20:30",276822,6.28,219.6,7.258,1.528,16.95,105.9195,14.43,15.35,26.93,0,110.4,13.33,15.23,181.6
"2010-10-25 00:21:00",276823,6.629,224.6,10.78,1.693,17.01,105.9189,14.43,15.44,27.06,0,110.4,13.33,15.23,186.6
"2010-10-25 00:21:30",276824,4.864,214.1,4.843,0.335,15,105.9201,14.43,15.28,27.22,0,110.4,13.36,15.23,176.1
"2010-10-25 00:22:00",276825,5.59,212,5.202,1.058,15.17,105.9213,14.43,15.28,27.18,0,110.4,13.32,15.23,174.0
"2010-10-25 00:22:30",276826,5.764,217.2,16.9,1.347,16.23,105.9189,14.43,15.42,27.21,0,110.4,13.32,15.23,179.2
"2010-10-25 00:23:00",276827,6.994,233.2,6.7,1.723,16.92,105.9192,14.43,15.36,27.66,0,110.4,13.32,15.23,195.2
"2010-10-25 00:23:30",276828,7.337,225.2,5.034,1.7,16.79,105.9201,14.43,15.41,27.53,0,110.4,13.32,15.23,187.2
"2010-10-25 00:24:00",276829,5.519,221.4,2.921,0.358,14.37,105.9207,14.43,15.28,27.18,0,110.4,13.35,15.23,183.4
"2010-10-25 00:24:30",276830,6.111,215.4,3.73,0.433,14.47,105.921,14.43,15.28,27.14,0,110.4,13.35,15.23,177.4
"2010-10-25 00:25:00",276831,6.018,224.9,4.015,0.298,14.88,105.9216,14.43,15.27,27.45,0,110.4,13.35,15.23,186.9
"2010-10-25 00:25:30",276832,5.379,232.8,2.588,0.267,15.17,105.9222,14.43,15.29,27.68,0,110.4,13.35,15.24,194.8
"2010-10-25 00:26:00",276833,5.145,224.4,11.64,0.226,15.22,105.9219,14.43,15.3,27.76,0,110.4,13.35,15.24,186.4
"2010-10-25 00:26:30",276834,5.947,211,11.05,1.347,16.16,105.9199,14.43,15.32,26.85,0,110.4,13.32,15.23,173.0
"2010-10-25 00:27:00",276835,6.541,226.3,4.572,1.581,16.53,105.9179,14.42,15.33,27.48,0,110.4,13.32,15.22,188.3
"2010-10-25 00:27:30",276836,6.484,230.7,15.52,1.248,17.94,105.9213,14.43,15.4,27.73,0,110.4,13.32,15.23,192.7
"2010-10-25 00:28:00",276837,6.317,210.4,6.21,0.823,16.98,105.921,14.43,15.35,27.45,0,110.4,13.33,15.23,172.4
"2010-10-25 00:28:30",276838,5.718,212.7,4.974,0.996,15.77,105.9222,14.43,15.42,27.53,0,110.4,13.33,15.24,174.7
"2010-10-25 00:29:00",276839,6.562,211.8,6.872,1.45,16.26,105.9222,14.43,15.31,26.56,0,110.4,13.33,15.24,173.8
"2010-10-25 00:29:30",276840,6.029,195.1,4.271,0.189,14.64,105.9216,14.43,15.27,26.5,0,110.4,13.36,15.23,157.1
"2010-10-25 00:30:00",276841,6.81,197.1,2.393,0.292,14.67,105.9131,14.41,15.26,26.38,0,110.4,13.36,15.21,159.1
"2010-10-25 00:30:30",276842,7.6,205.3,6.193,1.279,16.78,105.9038,14.39,15.39,26.73,0,110.4,13.33,15.19,167.3
"2010-10-25 00:31:00",276843,8.14,203.1,8.26,1.346,16.56,105.8968,14.37,15.34,26.64,0,110.4,13.33,15.17,165.1
"2010-10-25 00:31:30",276844,7.479,207.9,7.136,1.258,16.62,105.8925,14.36,15.44,26.93,0,110.4,13.33,15.16,169.9
"2010-10-25 00:32:00",276845,7.891,206,7.077,1.37,15.98,105.8976,14.37,15.24,26.64,0,110.4,13.32,15.17,168.0
"2010-10-25 00:32:30",276846,6.516,205.3,2.712,0.507,14.71,105.9072,14.4,15.24,26.88,0,110.4,13.36,15.20,167.3
"2010-10-25 00:33:00",276847,6.35,201.8,1.885,0.142,14.75,105.9196,14.43,15.26,26.9,0,110.4,13.36,15.23,163.8
"2010-10-25 00:33:30",276848,6.405,198.2,1.967,0.2,14.87,105.9222,14.43,15.26,26.74,0,110.4,13.36,15.24,160.2
"2010-10-25 00:34:00",276849,6.932,195.8,0.992,0.222,15.14,105.9219,14.43,15.26,26.34,0,110.4,13.36,15.24,157.8
"2010-10-25 00:34:30",276850,6.864,197.7,0.748,0.098,15.42,105.9219,14.43,15.3,26.14,0,110.4,13.36,15.24,159.7
"2010-10-25 00:35:00",276851,6.808,198,0.711,0.078,15.54,105.9222,14.43,15.28,25.87,0,110.4,13.36,15.24,160.0
"2010-10-25 00:35:30",276852,6.896,197.8,1.317,0.543,15.78,105.9241,14.44,15.38,26.09,0,110.4,13.33,15.24,159.8
"2010-10-25 00:36:00",276853,7.913,204.3,7.084,1.304,17.67,105.9399,14.48,15.4,26.02,0,110.4,13.33,15.28,166.3
"2010-10-25 00:36:30",276854,6.445,200,0.876,0.1,15.36,105.9481,14.5,15.32,25.84,0,110.4,13.36,15.30,162.0
"2010-10-25 00:37:00",276855,6.274,200.4,0.661,0.109,15.17,105.9557,14.52,15.32,25.99,0,110.4,13.36,15.32,162.4
"2010-10-25 00:37:30",276856,5.843,200.1,1.573,0.143,15.28,105.956,14.52,15.34,26.13,0,110.4,13.36,15.32,162.1
"2010-10-25 00:38:00",276857,5.656,198.8,1.315,0.106,15.35,105.9602,14.53,15.36,26.33,0,110.4,13.36,15.33,160.8
"2010-10-25 00:38:30",276858,5.494,199.5,1.031,0.068,15.48,105.9788,14.58,15.38,26.46,0,110.4,13.36,15.38,161.5
"2010-10-25 00:39:00",276859,5.438,198.1,1.473,0.088,15.63,105.9896,14.61,15.4,26.08,0,110.4,13.36,15.41,160.1
"2010-10-25 00:39:30",276860,5.471,199.3,1.038,0.144,15.74,105.9898,14.61,15.44,25.85,0,110.4,13.36,15.41,161.3
"2010-10-25 00:40:00",276861,5.822,198.9,1.258,0.104,15.87,105.9898,14.61,15.43,25.6,0,110.4,13.36,15.41,160.9
"2010-10-25 00:40:30",276862,5.729,197.5,1.077,0.104,15.85,105.9898,14.61,15.44,25.68,0,110.4,13.36,15.41,159.5
"2010-10-25 00:41:00",276863,5.907,195.3,0.528,0.113,15.87,105.9898,14.61,15.45,25.37,0,110.4,13.36,15.41,157.3
"2010-10-25 00:41:30",276864,6.022,194.3,2.013,0.099,15.88,105.9898,14.61,15.45,25.3,0,110.4,13.36,15.41,156.3
"2010-10-25 00:42:00",276865,5.902,193.8,2.06,0.156,15.9,105.9898,14.61,15.45,25.15,0,110.4,13.36,15.41,155.8
"2010-10-25 00:42:30",276866,6.069,192.6,1.832,0.124,15.9,105.9817,14.59,15.43,25.17,0,110.4,13.36,15.39,154.6
"2010-10-25 00:43:00",276867,6.214,192.5,1.248,0.14,15.91,105.9645,14.54,15.42,25.07,0,110.4,13.36,15.34,154.5
"2010-10-25 00:43:30",276868,7.054,196.7,6.992,1.365,17.39,105.9554,14.52,15.43,25.31,0,110.4,13.32,15.32,158.7
"2010-10-25 00:44:00",276869,7.655,203.1,6.51,1.233,18.98,105.9557,14.52,15.69,25.63,0,110.4,13.33,15.32,165.1
"2010-10-25 00:44:30",276870,6.229,190.3,5.267,0.82,15.7,105.9557,14.52,15.55,25.41,0,110.3,13.33,15.32,152.3
"2010-10-25 00:45:00",276871,7.385,191.8,6.525,1.395,17.54,105.9377,14.47,15.48,25.33,0,110.4,13.33,15.28,153.8
"2010-10-25 00:45:30",276872,6.34,189.7,6.82,1.133,15.8,105.9219,14.43,15.45,25.53,0,110.4,13.33,15.24,151.7
"2010-10-25 00:46:00",276873,6.927,194,6.608,1.144,16.8,105.9219,14.43,15.51,25.73,0,110.4,13.32,15.24,156.0
"2010-10-25 00:46:30",276874,5.539,193.2,2.318,0.104,14.03,105.9222,14.43,15.3,25.83,0,110.4,13.36,15.24,155.2
"2010-10-25 00:47:00",276875,5.544,188.8,1.306,0.227,14,105.9222,14.43,15.31,25.83,0,110.4,13.36,15.24,150.8
"2010-10-25 00:47:30",276876,5.467,185.8,2.258,0.257,14.13,105.9222,14.43,15.3,25.78,0,110.4,13.36,15.24,147.8
"2010-10-25 00:48:00",276877,6.001,181.9,1.805,0.16,14.31,105.9154,14.42,15.28,25.6,0,110.4,13.36,15.22,143.9
"2010-10-25 00:48:30",276878,6.052,184.1,1.746,0.177,14.65,105.892,14.36,15.26,25.76,0,110.4,13.36,15.16,146.1
"2010-10-25 00:49:00",276879,6.209,182.8,2.726,0.17,14.84,105.8877,14.35,15.24,25.78,0,110.4,13.36,15.15,144.8
"2010-10-25 00:49:30",276880,6.209,183.5,2.232,0.196,15.02,105.8728,14.31,15.2,25.77,0,110.4,13.36,15.11,145.5
"2010-10-25 00:50:00",276881,6.18,185.4,2.233,0.295,15.26,105.8545,14.26,15.2,25.98,0,110.4,13.36,15.06,147.4
"2010-10-25 00:50:30",276882,6.886,188,5.878,1.187,16.67,105.8536,14.26,15.3,26.13,0,110.4,13.33,15.06,150.0
"2010-10-25 00:51:00",276883,7.957,195.9,7.451,1.327,18.38,105.8536,14.26,15.31,26.21,0,110.4,13.33,15.06,157.9
"2010-10-25 00:51:30",276884,5.905,196.5,5.398,0.477,15.27,105.8531,14.26,15.24,27.04,0,110.4,13.36,15.06,158.5
"2010-10-25 00:52:00",276885,5.94,193.1,5.17,0.559,15.08,105.8542,14.26,15.24,27,0,110.4,13.34,15.06,155.1
"2010-10-25 00:52:30",276886,7.382,200.9,5.616,1.473,16.05,105.8545,14.26,15.19,26.52,0,110.4,13.33,15.06,162.9
"2010-10-25 00:53:00",276887,6.838,194.8,3.91,0.897,15.14,105.8545,14.26,15.25,26.48,0,110.4,13.33,15.06,156.8
"2010-10-25 00:53:30",276888,6.294,194.4,3.437,0.186,14.29,105.8545,14.26,15.15,26.52,0,110.4,13.36,15.06,156.4
"2010-10-25 00:54:00",276889,7.451,202.1,6.673,1.355,17.02,105.8542,14.26,15.27,26.52,0,110.4,13.33,15.06,164.1
"2010-10-25 00:54:30",276890,7.005,193.9,7.613,1.017,15.96,105.8545,14.26,15.29,26.39,0,110.3,13.33,15.06,155.9
"2010-10-25 00:55:00",276891,7.526,203.4,10.85,0.979,15.88,105.8519,14.25,15.11,26.43,0,110.4,13.33,15.06,165.4
"2010-10-25 00:55:30",276892,6.955,197.5,6.427,0.405,14.68,105.8545,14.26,15.1,27,0,110.4,13.35,15.06,159.5
"2010-10-25 00:56:00",276893,6.215,193.1,2.092,0.112,14.74,105.8545,14.26,15.11,26.31,0,110.4,13.35,15.06,155.1
"2010-10-25 00:56:30",276894,7.089,197.2,6.201,1.253,16.78,105.8511,14.25,15.19,26.34,0,110.4,13.32,15.05,159.2
"2010-10-25 00:57:00",276895,7.134,213.3,9.74,1.221,17.19,105.8474,14.24,15.26,27.1,0,110.4,13.32,15.04,175.3
"2010-10-25 00:57:30",276896,6.221,209.1,3.542,0.275,14.84,105.8545,14.26,15.1,27.5,0,110.4,13.35,15.06,171.1
"2010-10-25 00:58:00",276897,6.763,202.9,3.345,0.459,14.75,105.8545,14.26,15.2,27.46,0,110.4,13.35,15.06,164.9
"2010-10-25 00:58:30",276898,7.719,210.6,10.83,1.637,17.24,105.8545,14.26,15.19,27.77,0,110.4,13.32,15.06,172.6
"2010-10-25 00:59:00",276899,6.194,198.9,5.696,0.908,15.7,105.8542,14.26,15.27,27.33,0,110.4,13.32,15.06,160.9
"2010-10-25 00:59:30",276900,7.058,198.1,9.41,1.244,16.02,105.8545,14.26,15.18,27.05,0,110.4,13.32,15.06,160.1
"2010-10-25 01:00:00",276901,7.22,205.3,9.06,1.269,16.57,105.8545,14.26,15.2,26.94,0,110.4,13.32,15.06,167.3
"2010-10-25 01:00:30",276902,6.963,213,6.61,0.704,14.57,105.8542,14.26,15.1,27.51,0,110.4,13.36,15.06,175.0
"2010-10-25 01:01:00",276903,6.223,215.2,8.06,0.756,14.8,105.8545,14.26,15.11,28.22,0,110.4,13.36,15.06,177.2
"2010-10-25 01:01:30",276904,5.639,217.1,4.142,0.564,14.99,105.8545,14.26,15.11,28.2,0,110.4,13.36,15.06,179.1
"2010-10-25 01:02:00",276905,6.064,209.8,6.311,0.701,15.13,105.8565,14.27,15.13,28.04,0,110.4,13.36,15.07,171.8
"2010-10-25 01:02:30",276906,5.369,205.6,9.92,0.531,15.32,105.8646,14.29,15.14,28.07,0,110.4,13.36,15.09,167.6
"2010-10-25 01:03:00",276907,8.15,200.5,6.866,1.527,18.7,105.8581,14.27,15.38,27.61,0,110.4,13.33,15.07,162.5
"2010-10-25 01:03:30",276908,8.17,204.6,4.656,1.44,18.39,105.8545,14.26,15.33,27.66,0,110.4,13.33,15.06,166.6
"2010-10-25 01:04:00",276909,6.49,203.9,3.231,0.366,14.71,105.8545,14.26,15.11,28.12,0,110.4,13.36,15.06,165.9
"2010-10-25 01:04:30",276910,5.948,196.9,4.452,0.387,14.22,105.8545,14.26,15.11,27.68,0,110.4,13.36,15.06,158.9
"2010-10-25 01:05:00",276911,6.727,195.9,6.076,0.716,15.07,105.8545,14.26,15.2,27.97,0,110.4,13.33,15.06,157.9
"2010-10-25 01:05:30",276912,7.186,200.3,6.466,1.746,16.01,105.8511,14.25,15.12,27.81,0,110.4,13.33,15.05,162.3
"2010-10-25 01:06:00",276913,6.73,199.2,9.23,1.166,15.97,105.8302,14.2,15.36,28.42,0,110.4,13.33,15.00,161.2
"2010-10-25 01:06:30",276914,7.377,207.2,5.656,1.262,16.1,105.8212,14.17,15.12,28.39,0,110.4,13.33,14.98,169.2
"2010-10-25 01:07:00",276915,6.313,207.5,3.76,0.283,14.74,105.8206,14.17,15.17,28.87,0,110.4,13.36,14.97,169.5
"2010-10-25 01:07:30",276916,6.182,204.4,2.758,0.136,14.39,105.8206,14.17,15.06,28.96,0,110.4,13.36,14.97,166.4
"2010-10-25 01:08:00",276917,6.123,197.3,2.251,0.179,14.61,105.8206,14.17,15.07,28.69,0,110.4,13.36,14.97,159.3
"2010-10-25 01:08:30",276918,6.536,197.6,2.501,0.171,14.78,105.8206,14.17,15.15,28.41,0,110.4,13.36,14.97,159.6
"2010-10-25 01:09:00",276919,7.125,203.8,7.527,1.397,17,105.8206,14.17,15.12,28.59,0,110.4,13.33,14.97,165.8
"2010-10-25 01:09:30",276920,7.233,203.6,8.14,1.404,16.95,105.8206,14.17,15.19,28.65,0,110.4,13.33,14.97,165.6
"2010-10-25 01:10:00",276921,6.21,199.9,2.717,0.186,14.67,105.8206,14.17,15.04,28.7,0,110.4,13.36,14.97,161.9
"2010-10-25 01:10:30",276922,7.015,204.1,8.65,1.013,16.53,105.8206,14.17,15.23,28.88,0,110.4,13.33,14.97,166.1
"2010-10-25 01:11:00",276923,6.482,204.5,5.109,1.081,15.45,105.8206,14.17,15.08,29.07,0,110.4,13.33,14.97,166.5
"2010-10-25 01:11:30",276924,6.121,200,2.742,0.183,14.5,105.8206,14.17,15.04,29.07,0,110.4,13.36,14.97,162.0
"2010-10-25 01:12:00",276925,6.322,196.7,3.234,0.304,14.39,105.8116,14.15,15.07,28.81,0,110.4,13.36,14.95,158.7
"2010-10-25 01:12:30",276926,8.37,209.8,9.6,1.505,17.32,105.7868,14.09,15.24,29.2,0,110.4,13.32,14.89,171.8
"2010-10-25 01:13:00",276927,7.266,205.2,8.83,1.472,15.75,105.7854,14.08,15.18,29.28,0,110.4,13.32,14.88,167.2
"2010-10-25 01:13:30",276928,7.934,208.9,8.52,1.217,15.66,105.7634,14.03,14.97,29.13,0,110.4,13.32,14.83,170.9
"2010-10-25 01:14:00",276929,7.755,207.9,6.516,1.051,15.72,105.753,14,14.98,29.27,0,110.4,13.32,14.80,169.9
"2010-10-25 01:14:30",276930,7.481,212.4,7.654,1.343,15.9,105.753,14,15.04,29.62,0,110.4,13.32,14.80,174.4
"2010-10-25 01:15:00",276931,7.192,208.1,5.886,1.078,14.84,105.753,14,14.89,29.56,0,110.4,13.32,14.80,170.1
"2010-10-25 01:15:30",276932,6.737,202.9,4.424,0.336,14.26,105.753,14,14.89,29.73,0,110.4,13.35,14.80,164.9
"2010-10-25 01:16:00",276933,6.779,195.3,3.024,0.378,14.39,105.753,14,14.88,29.11,0,110.4,13.35,14.80,157.3
"2010-10-25 01:16:30",276934,7.845,206,8.82,1.66,16.91,105.753,14,14.94,29.3,0,110.4,13.32,14.80,168.0
"2010-10-25 01:17:00",276935,6.231,206.7,6.226,0.641,15.62,105.753,14,15.02,29.91,0,110.4,13.33,14.80,168.7
"2010-10-25 01:17:30",276936,6.935,210.8,4.029,1.161,16.89,105.753,14,14.92,29.88,0,110.4,13.33,14.80,172.8
"2010-10-25 01:18:00",276937,6.034,217.5,3.966,0.29,14.79,105.7552,14.01,14.88,30.36,0,110.4,13.36,14.81,179.5
"2010-10-25 01:18:30",276938,6.519,217.5,3.928,0.831,14.91,105.7812,14.07,15,30.49,0,110.4,13.33,14.87,179.5
"2010-10-25 01:19:00",276939,7.631,226,7.553,1.345,17.39,105.7868,14.09,15.08,30.59,0,110.4,13.33,14.89,188.0
"2010-10-25 01:19:30",276940,7.178,223.2,10.4,1.126,16.41,105.7868,14.09,15.01,30.56,0,110.4,13.33,14.89,185.2
"2010-10-25 01:20:00",276941,6.828,217.8,10.34,1.169,15.99,105.7868,14.09,15.14,30.48,0,110.4,13.33,14.89,179.8
"2010-10-25 01:20:30",276942,7.402,229.2,5.227,1.387,16.69,105.7868,14.09,15.04,30.6,0,110.4,13.33,14.89,191.2
"2010-10-25 01:21:00",276943,5.664,223.5,5.193,0.291,14.53,105.7972,14.11,15.07,30.66,0,110.3,13.36,14.91,185.5
"2010-10-25 01:21:30",276944,5.407,219.9,4.691,0.36,14.12,105.8102,14.15,14.97,30.45,0,110.4,13.36,14.95,181.9
"2010-10-25 01:22:00",276945,5.925,219.6,3.271,0.218,14.16,105.8096,14.15,14.99,30.37,0,110.4,13.36,14.95,181.6
"2010-10-25 01:22:30",276946,6.198,220.5,1.915,0.2,14.39,105.7871,14.09,14.97,30.47,0,110.4,13.36,14.89,182.5
"2010-10-25 01:23:00",276947,5.973,219.1,1.627,0.229,14.75,105.7868,14.09,14.97,30.55,0,110.4,13.36,14.89,181.1
"2010-10-25 01:23:30",276948,7.378,224,8.29,1.308,17.16,105.7868,14.09,15.01,30.56,0,110.4,13.33,14.89,186.0
"2010-10-25 01:24:00",276949,6.331,222.9,3.977,1.093,16.58,105.7868,14.09,15.13,30.77,0,110.4,13.33,14.89,184.9
"2010-10-25 01:24:30",276950,6.488,220.7,5.93,1.345,16.57,105.7868,14.09,15.06,30.75,0,110.4,13.33,14.89,182.7
"2010-10-25 01:25:00",276951,7.773,225.7,6.496,1.291,17.33,105.7758,14.06,15.03,30.73,0,110.4,13.33,14.86,187.7
"2010-10-25 01:25:30",276952,7.115,218.9,7.485,1.11,15.04,105.7561,14.01,15.02,30.77,0,110.4,13.33,14.81,180.9
"2010-10-25 01:26:00",276953,7.62,223.8,7.564,1.491,16.27,105.753,14,15.08,30.77,0,110.3,13.33,14.80,185.8
"2010-10-25 01:26:30",276954,7.151,220.6,7.437,1.204,15.65,105.7518,14,15.04,30.87,0,110.3,13.33,14.80,182.6
"2010-10-25 01:27:00",276955,6.3,218.4,2.349,0.191,13.76,105.7386,13.96,14.88,30.84,0,110.3,13.36,14.76,180.4
"2010-10-25 01:27:30",276956,6.033,224.9,2.031,0.303,13.83,105.7234,13.92,14.87,30.9,0,110.4,13.36,14.73,186.9
"2010-10-25 01:28:00",276957,6.023,223.9,2.292,0.211,14.09,105.7197,13.91,14.86,31.06,0,110.3,13.36,14.72,185.9
"2010-10-25 01:28:30",276958,5.597,217.5,2.899,0.442,14.45,105.7197,13.91,14.85,30.97,0,110.3,13.36,14.72,179.5
"2010-10-25 01:29:00",276959,5.788,214.2,3.484,0.117,14.64,105.72,13.92,14.84,30.58,0,110.3,13.36,14.72,176.2
"2010-10-25 01:29:30",276960,5.408,218.1,9.71,1.026,16.07,105.7191,13.91,14.96,30.51,0,110.3,13.32,14.71,180.1
"2010-10-25 01:30:00",276961,7.052,227.5,8.79,1.438,17.74,105.7191,13.91,14.92,31.17,0,110.4,13.32,14.71,189.5
"2010-10-25 01:30:30",276962,6.038,233.8,6.324,1.37,17.37,105.7194,13.91,14.94,31.26,0,110.4,13.32,14.71,195.8
"2010-10-25 01:31:00",276963,4.349,225.2,5.332,0.186,14.47,105.7343,13.95,14.9,31.29,0,110.4,13.36,14.75,187.2
"2010-10-25 01:31:30",276964,5.984,224.5,7.551,1.593,16.25,105.7504,13.99,14.93,31.26,0,110.3,13.32,14.79,186.5
"2010-10-25 01:32:00",276965,5.931,229.1,5.904,1.39,16.97,105.753,14,15.02,31.35,0,110.4,13.32,14.80,191.1
"2010-10-25 01:32:30",276966,4.146,230.3,8.54,0.913,14.96,105.753,14,15,31.33,0,110.4,13.32,14.80,192.3
"2010-10-25 01:33:00",276967,3.647,225.1,5.786,0.264,13.55,105.7566,14.01,14.87,31.13,0,110.3,13.36,14.81,187.1
"2010-10-25 01:33:30",276968,3.809,220,7.46,0.377,13.42,105.7541,14,14.87,30.87,0,110.4,13.36,14.80,182.0
"2010-10-25 01:34:00",276969,4.087,216.2,4.984,0.39,13.66,105.753,14,14.88,30.86,0,110.4,13.36,14.80,178.2
"2010-10-25 01:34:30",276970,5.203,210.4,2.954,0.191,13.9,105.7521,14,14.87,30.57,0,110.3,13.36,14.80,172.4
"2010-10-25 01:35:00",276971,4.699,205.5,4.896,0.398,14.21,105.7245,13.93,14.84,30.46,0,110.3,13.36,14.73,167.5
"2010-10-25 01:35:30",276972,4.853,200.3,4.045,0.216,14.36,105.718,13.91,14.83,30.2,0,110.3,13.36,14.71,162.3
"2010-10-25 01:36:00",276973,5.04,199.9,3.249,0.141,14.55,105.6898,13.84,14.84,29.99,0,110.4,13.36,14.64,161.9
"2010-10-25 01:36:30",276974,6.251,211.3,6.442,1.391,18.06,105.6638,13.77,15.01,30.5,0,110.4,13.33,14.57,173.3
"2010-10-25 01:37:00",276975,6.213,215.6,12.88,1.244,18.01,105.6514,13.74,14.97,30.74,0,110.3,13.33,14.54,177.6
"2010-10-25 01:37:30",276976,6.213,208,10.74,1.402,16.44,105.6334,13.69,14.83,30.47,0,110.3,13.33,14.49,170.0
"2010-10-25 01:38:00",276977,6.219,219.2,7.783,1.23,16.23,105.6173,13.65,14.78,30.7,0,110.3,13.33,14.45,181.2
"2010-10-25 01:38:30",276978,4.568,217.3,1.869,0.122,12.83,105.601,13.61,14.58,31.12,0,110.3,13.36,14.41,179.3
"2010-10-25 01:39:00",276979,4.594,221.7,2.94,0.234,12.7,105.5843,13.57,14.53,31.31,0,110.3,13.36,14.37,183.7
"2010-10-25 01:39:30",276980,4.679,221.6,1.358,0.174,12.93,105.5837,13.57,14.53,31.12,0,110.3,13.36,14.37,183.6
"2010-10-25 01:40:00",276981,3.985,217.9,3.041,0.292,13.25,105.5832,13.57,14.51,30.14,0,110.3,13.36,14.36,179.9
"2010-10-25 01:40:30",276982,3.418,222.3,3.627,0.324,13.74,105.5739,13.54,14.47,30.81,0,110.3,13.36,14.34,184.3
"2010-10-25 01:41:00",276983,3.908,234.8,3.603,0.095,14.22,105.5756,13.55,14.45,31.42,0,110.3,13.36,14.35,196.8
"2010-10-25 01:41:30",276984,4.103,238.1,5.303,0.261,14.46,105.5832,13.57,14.45,31.5,0,110.3,13.37,14.36,200.1
"2010-10-25 01:42:00",276985,3.744,246.7,3.651,0.197,14.8,105.5837,13.57,14.45,31.77,0,110.3,13.37,14.37,208.7
"2010-10-25 01:42:30",276986,5.64,260.2,5.464,1.122,18.37,105.5837,13.57,14.58,31.94,0,110.4,13.33,14.37,222.2
"2010-10-25 01:43:00",276987,5.216,263.3,9.11,1.3,17.64,105.5837,13.57,14.69,32.08,0,110.3,13.33,14.37,225.3
"2010-10-25 01:43:30",276988,5.052,276.4,7.235,1.303,16.55,105.606,13.62,14.69,32.16,0,110.3,13.33,14.42,238.4
"2010-10-25 01:44:00",276989,5.516,286.5,6.713,1.412,17.25,105.6182,13.65,14.77,32.23,0,110.3,13.33,14.45,248.5
"2010-10-25 01:44:30",276990,4.757,288.8,6.227,1.312,15.44,105.6404,13.71,14.62,32,0,110.3,13.33,14.51,250.8
"2010-10-25 01:45:00",276991,3.536,288.1,1.324,0.052,12.91,105.6514,13.74,14.56,31.86,0,110.3,13.36,14.54,250.1
"2010-10-25 01:45:30",276992,3.518,285,0.591,0.066,13.28,105.676,13.8,14.6,31.68,0,110.3,13.36,14.60,247.0
"2010-10-25 01:46:00",276993,3.453,284.7,0.84,0.064,13.78,105.7211,13.92,14.65,31.45,0,110.3,13.36,14.72,246.7
"2010-10-25 01:46:30",276994,2.892,286.9,2.153,0.125,14.01,105.7642,14.03,14.75,31.24,0,110.3,13.36,14.83,248.9
"2010-10-25 01:47:00",276995,2.458,290.3,1.641,0.091,14.27,105.8026,14.13,14.82,31.08,0,110.3,13.36,14.93,252.3
"2010-10-25 01:47:30",276996,2.351,290.9,1.237,0.091,14.52,105.8353,14.21,14.89,30.91,0,110.3,13.36,15.01,252.9
"2010-10-25 01:48:00",276997,2.426,294.8,1.934,0.109,14.89,105.8567,14.27,14.96,30.77,0,110.3,13.36,15.07,256.8